TimeEDT,TemperatureF,Dew PointF,Humidity,Sea Level PressureIn,VisibilityMPH,Wind Direction,Wind SpeedMPH,Gust SpeedMPH,PrecipitationIn,Events,Conditions,WindDirDegrees,DateUTC
12:58 AM,62.8,54.3,74,29.92,10.0,West,2.3,-,N/A,,Overcast,260,2013-10-20 04:58:00
1:11 AM,62.6,53.6,72,29.92,10.0,West,2.3,-,N/A,Rain,Light Rain,260,2013-10-20 05:11:00
1:22 AM,62.6,55.4,77,29.92,10.0,SW,2.3,-,N/A,,Overcast,230,2013-10-20 05:22:00
1:58 AM,62.1,55.0,78,29.92,10.0,SW,1.2,-,0.00,,Overcast,220,2013-10-20 05:58:00
2:58 AM,62.1,54.5,76,29.93,10.0,WNW,5.8,-,N/A,,Overcast,300,2013-10-20 06:58:00
3:58 AM,61.2,55.0,80,29.92,10.0,NW,5.8,-,N/A,,Mostly Cloudy,310,2013-10-20 07:58:00
4:58 AM,59.7,55.0,84,29.94,10.0,NW,8.1,-,N/A,,Scattered Clouds,310,2013-10-20 08:58:00
5:58 AM,57.7,54.3,88,29.96,10.0,North,6.9,-,N/A,,Clear,10,2013-10-20 09:58:00
6:58 AM,56.8,53.6,89,29.97,10.0,North,6.9,-,N/A,,Clear,10,2013-10-20 10:58:00
7:58 AM,55.8,50.4,82,29.99,10.0,NNE,10.4,-,N/A,,Clear,20,2013-10-20 11:58:00
8:58 AM,55.8,48.0,75,30.04,10.0,NNE,12.7,-,N/A,,Clear,30,2013-10-20 12:58:00
9:58 AM,60.3,47.1,62,30.04,10.0,NE,18.4,-,N/A,,Clear,50,2013-10-20 13:58:00
10:58 AM,62.6,47.5,58,30.06,10.0,ENE,13.8,-,N/A,,Clear,70,2013-10-20 14:58:00
11:08 AM,62.6,46.4,55,30.06,10.0,NNE,13.8,-,N/A,,Clear,20,2013-10-20 15:08:00
11:58 AM,64.6,46.0,51,30.06,10.0,ENE,10.4,-,N/A,,Clear,70,2013-10-20 15:58:00
12:58 PM,66.6,46.0,48,30.06,10.0,ENE,10.4,-,N/A,,Clear,70,2013-10-20 16:58:00
1:58 PM,68.2,46.9,47,30.03,10.0,ESE,6.9,-,N/A,,Clear,110,2013-10-20 17:58:00
2:58 PM,68.4,47.5,47,30.01,10.0,East,5.8,-,N/A,,Clear,100,2013-10-20 18:58:00
3:58 PM,68.4,47.8,48,30.01,10.0,ENE,6.9,-,N/A,,Clear,70,2013-10-20 19:58:00
4:58 PM,67.5,48.0,50,30.01,10.0,ENE,3.5,-,N/A,,Clear,70,2013-10-20 20:58:00
5:58 PM,67.1,48.0,50,30.02,10.0,ENE,5.8,-,N/A,,Clear,60,2013-10-20 21:58:00
6:58 PM,62.1,50.0,65,30.04,10.0,NE,3.5,-,N/A,,Clear,50,2013-10-20 22:58:00
7:58 PM,56.5,51.4,83,30.05,10.0,NE,3.5,-,N/A,,Clear,40,2013-10-20 23:58:00
8:58 PM,56.5,50.2,79,30.07,10.0,NE,3.5,-,N/A,,Clear,40,2013-10-21 00:58:00
9:58 PM,55.6,49.5,80,30.08,10.0,NNE,4.6,-,N/A,,Clear,30,2013-10-21 01:58:00
10:58 PM,52.7,48.6,86,30.09,10.0,NNE,5.8,-,N/A,,Clear,30,2013-10-21 02:58:00
11:58 PM,53.8,49.1,84,30.09,10.0,NE,2.3,-,N/A,,Clear,50,2013-10-21 03:58:00